Location: Mactaquac Provincial Park
(45.9573°N, 66.8897°W)
Time: 03:31:50
(UTC-03:00)

Cosmos 1867 - Visible Passes

Search period start: 25 April 2015 00:00
Search period end: 05 May 2015 00:00
Orbit: 777 x 799 km, 65.0° (Epoch: 23 April)

Date Brightness Start Highest point End Pass type
(mag) Time Alt. Az. Time Alt. Az. Time Alt. Az.
25 Apr 4.9 05:45:05 10° S 05:50:05 40° ESE 05:55:10 10° NE visible
26 Apr 5.2 05:13:58 10° S 05:18:35 30° ESE 05:23:18 10° NE visible
27 Apr 5.6 04:43:04 10° SSE 04:47:06 22° ESE 04:51:18 10° ENE visible
28 Apr 5.9 04:12:28 10° SE 04:15:39 16° ESE 04:19:03 10° ENE visible
29 Apr 6.0 03:42:32 10° SE 03:44:13 12° ESE 03:46:13 10° E visible
29 Apr 3.8 05:21:37 10° SSW 05:27:01 75° SE 05:32:30 10° NE visible
30 Apr 4.1 04:50:45 13° SSW 04:55:27 57° ESE 05:00:49 10° NE visible
01 May 4.5 04:20:16 18° S 04:23:54 42° ESE 04:29:03 10° NE visible
02 May 4.9 03:49:44 20° SSE 03:52:24 32° ESE 03:57:13 10° NE visible
02 May 4.1 05:30:36 10° WSW 05:35:51 48° NW 05:41:09 10° NNE visible
03 May 5.2 03:19:08 20° SE 03:20:54 24° ESE 03:25:14 10° ENE visible
03 May 3.8 04:59:48 16° SW 05:04:09 62° NW 05:09:35 10° NNE visible
04 May 5.5 02:48:28 17° ESE 02:49:27 18° ESE 02:53:04 10° ENE visible
04 May 3.6 04:29:08 24° SW 04:32:29 80° NW 04:38:00 10° NE visible
